STARLINK-5656, 55451

Orbit data source: Space-Track

STARLINK-5656, 55451 is a payload satellite owned by SpaceX/Seattle (US) in LEO that was launched on Thu, 02 Feb 2023 UTC via an FALCON 9 launch vehicle from the Air Force Eastern Test Range (AFETR). Payload-class satellites include a variety of spacecraft equipped with specific instruments for various scientific and technological missions. These include communications satellites like Starlink; space stations such as the ISS; scientific satellites like the Hubble; Earth observation satellites from companies like Planet Labs, Umbra, and HawkEye 360; GPS; miniature CubeSats for education and research; and military/defense satellites.

Loading next visibility...
Identifier
55451, 2023-015C
Orbit
LEO
Country
Flag of USUS
Related business
Manufacturer
SpaceX/Seattle
Mission
Operational Commercial Communications
Bus & Motor
STARLINK, Unknown motor
Mass
305 kg wet, ~290 kg dry
Launch date (UTC)
2023-02-02 (3 years ago)
Launch vehicle
FALCON 9
Launch site
Air Force Eastern Test Range (AFETR)
Object type
Payload
Rocket body
Debris
Shape & HBR
Box + 1 Pan, 10.1 m
Radar Cross Section
13.562 m², Large (>1 m²)

Expand to show TLE details & history
Last TLE update: 10 hours ago

TLE from 10 hours ago
0 STARLINK-5656
1 55451U 23015C   25288.72942138  .00000811  00000-0  75091-4 0  9998
2 55451  43.0043  34.0585 0001259 269.7713  90.2985 15.02533387148949
Epoch: 2025-10-15T17:30Z
TLE epoch observation values (Epoch: 2025-10-15T17:30:22.007Z)
Latitude
-0.00001°
Longitude
106.96747°
Altitude
558.871 km
Speed
7.584 km/s
True Right ascension
02h 16m 14s
True Declination
0° 00' 00"
Sunlit
Object was in full shadow at epoch
Visualization orbit readout
Latitude
Unknown
Longitude
Unknown
Altitude
Unknown
Speed
Unknown
Apparent Right ascension
Unknown
Apparent Declination
Unknown
Sunlit
N/A
Visualization observer readout
Local Sidereal Time
22:01:40
Azimuth
Unknown
Elevation
Unknown
Doppler factor
Unknown
Orbital elements
Apogee altitude
561.884 km
Perigee altitude
560.137 km
Semi-major axis
6,939.148 km
Eccentricity
0.00013
Inclination
43.0043°
RAAN
34.0585°
Arg. of periapsis
269.7713°
True anomaly
90.31293°
Mean anomaly
90.2985°
Eccentric anomaly
90.30571°
Mean motion
3.75478 °/min
Orbital period
95.88 mins
BSTAR
0.000075091
Loading maneuver chart data...
Computing Atmospheric mass density...
Loading historical data...
Loading historical data...
Loading historical data...
Loading historical data...
Loading historical data...
Loading historical data...
Loading historical data...

Documentation

Showing up to 5 results
|